owner,sensor,date,latitude,longitude,vertical_datum,sea_water_practical_salinity,qcFlag 
DISL,ioos:station:DISL:BSCA:1,2015-07-01T00:00:00Z,30.3288,-87.8293,1.599,7.87,1111122 
DISL,ioos:station:DISL:BSCA:1,2015-07-01T00:30:00Z,30.3288,-87.8293,1.591,7.94,1111122 
DISL,ioos:station:DISL:BSCA:1,2015-07-01T01:00:00Z,30.3288,-87.8293,1.591,8.0,1111122 
DISL,ioos:station:DISL:BSCA:1,2015-07-01T01:30:00Z,30.3288,-87.8293,1.592,7.85,1111122 
DISL,ioos:station:DISL:BSCA:1,2015-07-01T02:00:00Z,30.3288,-87.8293,1.597,7.84,1111122 
DISL,ioos:station:DISL:BSCA:1,2015-07-01T02:30:00Z,30.3288,-87.8293,1.59,7.84,1111122 
DISL,ioos:station:DISL:BSCA:1,2015-07-01T03:00:00Z,30.3288,-87.8293,1.605,7.84,1111122 
DISL,ioos:station:DISL:BSCA:1,2015-07-01T03:30:00Z,30.3288,-87.8293,1.608,7.83,1111122 
DISL,ioos:station:DISL:BSCA:1,2015-07-01T04:00:00Z,30.3288,-87.8293,1.644,7.85,1111122 
DISL,ioos:station:DISL:BSCA:1,2015-07-01T04:30:00Z,30.3288,-87.8293,1.675,7.89,1111122 
DISL,ioos:station:DISL:BSCA:1,2015-07-01T05:00:00Z,30.3288,-87.8293,1.689,7.93,1111122 
DISL,ioos:station:DISL:BSCA:1,2015-07-01T05:30:00Z,30.3288,-87.8293,1.778,7.97,1111122 
DISL,ioos:station:DISL:BSCA:1,2015-07-01T06:00:00Z,30.3288,-87.8293,1.795,7.99,1111122 
DISL,ioos:station:DISL:BSCA:1,2015-07-01T06:30:00Z,30.3288,-87.8293,1.813,7.97,1111122 
DISL,ioos:station:DISL:BSCA:1,2015-07-01T07:00:00Z,30.3288,-87.8293,1.846,7.98,1111122 
DISL,ioos:station:DISL:BSCA:1,2015-07-01T07:30:00Z,30.3288,-87.8293,1.863,7.97,1111122 
DISL,ioos:station:DISL:BSCA:1,2015-07-01T08:00:00Z,30.3288,-87.8293,1.868,8.0,1111122 
DISL,ioos:station:DISL:BSCA:1,2015-07-01T08:30:00Z,30.3288,-87.8293,1.838,7.98,1111122 
DISL,ioos:station:DISL:BSCA:1,2015-07-01T09:00:00Z,30.3288,-87.8293,1.869,8.0,1111122 
DISL,ioos:station:DISL:BSCA:1,2015-07-01T09:30:00Z,30.3288,-87.8293,1.857,7.98,1111122 
DISL,ioos:station:DISL:BSCA:1,2015-07-01T10:00:00Z,30.3288,-87.8293,1.887,7.97,1111122 
DISL,ioos:station:DISL:BSCA:1,2015-07-01T10:30:00Z,30.3288,-87.8293,1.897,7.93,1111122 
DISL,ioos:station:DISL:BSCA:1,2015-07-01T11:00:00Z,30.3288,-87.8293,1.931,7.94,1111122 
DISL,ioos:station:DISL:BSCA:1,2015-07-01T11:30:00Z,30.3288,-87.8293,1.968,7.93,1111122 
DISL,ioos:station:DISL:BSCA:1,2015-07-01T12:00:00Z,30.3288,-87.8293,2.01,7.91,1111122 
DISL,ioos:station:DISL:BSCA:1,2015-07-01T12:30:00Z,30.3288,-87.8293,2.054,7.95,1111122 
DISL,ioos:station:DISL:BSCA:1,2015-07-01T13:00:00Z,30.3288,-87.8293,2.094,7.95,1111122 
DISL,ioos:station:DISL:BSCA:1,2015-07-01T13:30:00Z,30.3288,-87.8293,2.116,7.95,1111122 
DISL,ioos:station:DISL:BSCA:1,2015-07-01T14:00:00Z,30.3288,-87.8293,2.131,7.96,1111122 
DISL,ioos:station:DISL:BSCA:1,2015-07-01T14:30:00Z,30.3288,-87.8293,2.141,7.99,1111122 
DISL,ioos:station:DISL:BSCA:1,2015-07-01T15:00:00Z,30.3288,-87.8293,2.155,8.01,1111122 
DISL,ioos:station:DISL:BSCA:1,2015-07-01T15:30:00Z,30.3288,-87.8293,2.166,8.03,1111122 
DISL,ioos:station:DISL:BSCA:1,2015-07-01T16:00:00Z,30.3288,-87.8293,2.173,8.02,1111122 
DISL,ioos:station:DISL:BSCA:1,2015-07-01T16:30:00Z,30.3288,-87.8293,2.185,8.04,1111122 
DISL,ioos:station:DISL:BSCA:1,2015-07-01T17:00:00Z,30.3288,-87.8293,2.166,8.04,1111122 
DISL,ioos:station:DISL:BSCA:1,2015-07-01T17:30:00Z,30.3288,-87.8293,2.151,8.04,1111122 
DISL,ioos:station:DISL:BSCA:1,2015-07-01T18:00:00Z,30.3288,-87.8293,2.102,8.03,1111122 
DISL,ioos:station:DISL:BSCA:1,2015-07-01T18:30:00Z,30.3288,-87.8293,2.063,8.02,1111122 
DISL,ioos:station:DISL:BSCA:1,2015-07-01T19:00:00Z,30.3288,-87.8293,2.035,8.0,1111122 
DISL,ioos:station:DISL:BSCA:1,2015-07-01T19:30:00Z,30.3288,-87.8293,1.995,8.04,1111122 
DISL,ioos:station:DISL:BSCA:1,2015-07-01T20:00:00Z,30.3288,-87.8293,1.965,8.03,1111122 
DISL,ioos:station:DISL:BSCA:1,2015-07-01T20:30:00Z,30.3288,-87.8293,1.934,8.05,1111122 
DISL,ioos:station:DISL:BSCA:1,2015-07-01T21:00:00Z,30.3288,-87.8293,1.899,8.05,1111122 
DISL,ioos:station:DISL:BSCA:1,2015-07-01T21:30:00Z,30.3288,-87.8293,1.864,8.09,1111122 
DISL,ioos:station:DISL:BSCA:1,2015-07-01T22:00:00Z,30.3288,-87.8293,1.844,8.07,1111122 
DISL,ioos:station:DISL:BSCA:1,2015-07-01T22:30:00Z,30.3288,-87.8293,1.764,8.06,1111122 
DISL,ioos:station:DISL:BSCA:1,2015-07-01T23:00:00Z,30.3288,-87.8293,1.924,7.98,1111122 
DISL,ioos:station:DISL:BSCA:1,2015-07-01T23:30:00Z,30.3288,-87.8293,1.829,7.89,1111122 
DISL,ioos:station:DISL:BSCA:1,2015-07-02T00:00:00Z,30.3288,-87.8293,1.804,7.96,1111122 
DISL,ioos:station:DISL:BSCA:1,2015-07-02T00:30:00Z,30.3288,-87.8293,1.772,7.9,1111122 
DISL,ioos:station:DISL:BSCA:1,2015-07-02T01:00:00Z,30.3288,-87.8293,1.699,7.85,1111122 
DISL,ioos:station:DISL:BSCA:1,2015-07-02T01:30:00Z,30.3288,-87.8293,1.706,7.84,1111122 
DISL,ioos:station:DISL:BSCA:1,2015-07-02T02:00:00Z,30.3288,-87.8293,1.644,7.83,1111122 
DISL,ioos:station:DISL:BSCA:1,2015-07-02T02:30:00Z,30.3288,-87.8293,1.642,7.91,1111122 
DISL,ioos:station:DISL:BSCA:1,2015-07-02T03:00:00Z,30.3288,-87.8293,1.615,7.79,1111122 
DISL,ioos:station:DISL:BSCA:1,2015-07-02T03:30:00Z,30.3288,-87.8293,1.593,7.83,1111122 
DISL,ioos:station:DISL:BSCA:1,2015-07-02T04:00:00Z,30.3288,-87.8293,1.606,7.84,1111122 
DISL,ioos:station:DISL:BSCA:1,2015-07-02T04:30:00Z,30.3288,-87.8293,1.587,7.76,1111122 
DISL,ioos:station:DISL:BSCA:1,2015-07-02T05:00:00Z,30.3288,-87.8293,1.63,7.69,1111122 
DISL,ioos:station:DISL:BSCA:1,2015-07-02T05:30:00Z,30.3288,-87.8293,1.644,7.72,1111122 
DISL,ioos:station:DISL:BSCA:1,2015-07-02T06:00:00Z,30.3288,-87.8293,1.678,7.64,1111122 
DISL,ioos:station:DISL:BSCA:1,2015-07-02T06:30:00Z,30.3288,-87.8293,1.723,7.59,1111122 
DISL,ioos:station:DISL:BSCA:1,2015-07-02T07:00:00Z,30.3288,-87.8293,1.764,7.6,1111122 
DISL,ioos:station:DISL:BSCA:1,2015-07-02T07:30:00Z,30.3288,-87.8293,1.795,7.61,1111122 
DISL,ioos:station:DISL:BSCA:1,2015-07-02T08:00:00Z,30.3288,-87.8293,1.819,7.6,1111122 
DISL,ioos:station:DISL:BSCA:1,2015-07-02T08:30:00Z,30.3288,-87.8293,1.856,7.58,1111122 
DISL,ioos:station:DISL:BSCA:1,2015-07-02T09:00:00Z,30.3288,-87.8293,1.889,7.58,1111122 
DISL,ioos:station:DISL:BSCA:1,2015-07-02T09:30:00Z,30.3288,-87.8293,1.914,7.61,1111122 
DISL,ioos:station:DISL:BSCA:1,2015-07-02T10:00:00Z,30.3288,-87.8293,1.944,7.66,1111122 
DISL,ioos:station:DISL:BSCA:1,2015-07-02T10:30:00Z,30.3288,-87.8293,1.97,7.71,1111122 
DISL,ioos:station:DISL:BSCA:1,2015-07-02T11:00:00Z,30.3288,-87.8293,1.991,7.76,1111122 
DISL,ioos:station:DISL:BSCA:1,2015-07-02T11:30:00Z,30.3288,-87.8293,2.038,7.79,1111122 
DISL,ioos:station:DISL:BSCA:1,2015-07-02T12:00:00Z,30.3288,-87.8293,2.071,7.78,1111122 
DISL,ioos:station:DISL:BSCA:1,2015-07-02T12:30:00Z,30.3288,-87.8293,2.138,7.87,1111122 
DISL,ioos:station:DISL:BSCA:1,2015-07-02T13:00:00Z,30.3288,-87.8293,2.173,7.95,1111122 
DISL,ioos:station:DISL:BSCA:1,2015-07-02T13:30:00Z,30.3288,-87.8293,2.185,7.92,1111122 
DISL,ioos:station:DISL:BSCA:1,2015-07-02T14:00:00Z,30.3288,-87.8293,2.221,7.89,1111122 
DISL,ioos:station:DISL:BSCA:1,2015-07-02T14:30:00Z,30.3288,-87.8293,2.249,7.94,1111122 
DISL,ioos:station:DISL:BSCA:1,2015-07-02T15:00:00Z,30.3288,-87.8293,2.29,7.96,1111122 
DISL,ioos:station:DISL:BSCA:1,2015-07-02T15:30:00Z,30.3288,-87.8293,2.293,7.97,1111122 
DISL,ioos:station:DISL:BSCA:1,2015-07-02T16:00:00Z,30.3288,-87.8293,2.304,7.95,1111122 
DISL,ioos:station:DISL:BSCA:1,2015-07-02T16:30:00Z,30.3288,-87.8293,2.29,7.94,1111122 
DISL,ioos:station:DISL:BSCA:1,2015-07-02T17:00:00Z,30.3288,-87.8293,2.266,7.92,1111122 
DISL,ioos:station:DISL:BSCA:1,2015-07-02T17:30:00Z,30.3288,-87.8293,2.242,7.91,1111122 
DISL,ioos:station:DISL:BSCA:1,2015-07-02T18:00:00Z,30.3288,-87.8293,2.232,7.87,1111122 
DISL,ioos:station:DISL:BSCA:1,2015-07-02T18:30:00Z,30.3288,-87.8293,2.21,7.89,1111122 
DISL,ioos:station:DISL:BSCA:1,2015-07-02T19:00:00Z,30.3288,-87.8293,2.184,7.91,1111122 
DISL,ioos:station:DISL:BSCA:1,2015-07-02T19:30:00Z,30.3288,-87.8293,2.146,7.92,1111122 
DISL,ioos:station:DISL:BSCA:1,2015-07-02T20:00:00Z,30.3288,-87.8293,2.109,7.93,1111122 
DISL,ioos:station:DISL:BSCA:1,2015-07-02T20:30:00Z,30.3288,-87.8293,2.061,7.95,1111122 
DISL,ioos:station:DISL:BSCA:1,2015-07-02T21:00:00Z,30.3288,-87.8293,2.033,7.96,1111122 
DISL,ioos:station:DISL:BSCA:1,2015-07-02T21:30:00Z,30.3288,-87.8293,1.979,7.97,1111122 
DISL,ioos:station:DISL:BSCA:1,2015-07-02T22:00:00Z,30.3288,-87.8293,1.958,8.0,1111122 
DISL,ioos:station:DISL:BSCA:1,2015-07-02T22:30:00Z,30.3288,-87.8293,1.907,8.03,1111122 
DISL,ioos:station:DISL:BSCA:1,2015-07-02T23:00:00Z,30.3288,-87.8293,1.895,8.05,1111122 
DISL,ioos:station:DISL:BSCA:1,2015-07-02T23:30:00Z,30.3288,-87.8293,1.874,7.99,1111122 
DISL,ioos:station:DISL:BSCA:1,2015-07-03T00:00:00Z,30.3288,-87.8293,1.818,7.98,1111122 
DISL,ioos:station:DISL:BSCA:1,2015-07-03T00:30:00Z,30.3288,-87.8293,1.79,7.98,1111122 
DISL,ioos:station:DISL:BSCA:1,2015-07-03T01:00:00Z,30.3288,-87.8293,1.754,7.95,1111122 
DISL,ioos:station:DISL:BSCA:1,2015-07-03T01:30:00Z,30.3288,-87.8293,1.712,7.95,1111122 
DISL,ioos:station:DISL:BSCA:1,2015-07-03T02:00:00Z,30.3288,-87.8293,1.693,7.97,1111122 
DISL,ioos:station:DISL:BSCA:1,2015-07-03T02:30:00Z,30.3288,-87.8293,1.668,7.98,1111122 
DISL,ioos:station:DISL:BSCA:1,2015-07-03T03:00:00Z,30.3288,-87.8293,1.656,8.0,1111122 
DISL,ioos:station:DISL:BSCA:1,2015-07-03T03:30:00Z,30.3288,-87.8293,1.644,8.0,1111122 
DISL,ioos:station:DISL:BSCA:1,2015-07-03T04:00:00Z,30.3288,-87.8293,1.641,8.03,1111122 
DISL,ioos:station:DISL:BSCA:1,2015-07-03T04:30:00Z,30.3288,-87.8293,1.641,8.04,1111122 
DISL,ioos:station:DISL:BSCA:1,2015-07-03T05:00:00Z,30.3288,-87.8293,1.663,8.06,1111122 
DISL,ioos:station:DISL:BSCA:1,2015-07-03T05:30:00Z,30.3288,-87.8293,1.69,8.11,1111122 
DISL,ioos:station:DISL:BSCA:1,2015-07-03T06:00:00Z,30.3288,-87.8293,1.724,8.12,1111122 
DISL,ioos:station:DISL:BSCA:1,2015-07-03T06:30:00Z,30.3288,-87.8293,1.766,8.17,1111122 
DISL,ioos:station:DISL:BSCA:1,2015-07-03T07:00:00Z,30.3288,-87.8293,1.786,8.21,1111122 
DISL,ioos:station:DISL:BSCA:1,2015-07-03T07:30:00Z,30.3288,-87.8293,1.822,8.22,1111122 
DISL,ioos:station:DISL:BSCA:1,2015-07-03T08:00:00Z,30.3288,-87.8293,1.843,8.23,1111122 
DISL,ioos:station:DISL:BSCA:1,2015-07-03T08:30:00Z,30.3288,-87.8293,1.874,8.29,1111122 
DISL,ioos:station:DISL:BSCA:1,2015-07-03T09:00:00Z,30.3288,-87.8293,1.895,8.29,1111122 
DISL,ioos:station:DISL:BSCA:1,2015-07-03T09:30:00Z,30.3288,-87.8293,1.911,8.28,1111122 
DISL,ioos:station:DISL:BSCA:1,2015-07-03T10:00:00Z,30.3288,-87.8293,1.936,8.3,1111122 
DISL,ioos:station:DISL:BSCA:1,2015-07-03T10:30:00Z,30.3288,-87.8293,1.958,8.35,1111122 
DISL,ioos:station:DISL:BSCA:1,2015-07-03T11:00:00Z,30.3288,-87.8293,1.98,8.34,1111122 
DISL,ioos:station:DISL:BSCA:1,2015-07-03T11:30:00Z,30.3288,-87.8293,2.024,8.35,1111122 
DISL,ioos:station:DISL:BSCA:1,2015-07-03T12:00:00Z,30.3288,-87.8293,2.056,8.37,1111122 
DISL,ioos:station:DISL:BSCA:1,2015-07-03T12:30:00Z,30.3288,-87.8293,2.097,8.35,1111122 
DISL,ioos:station:DISL:BSCA:1,2015-07-03T13:00:00Z,30.3288,-87.8293,2.118,8.33,1111122 
DISL,ioos:station:DISL:BSCA:1,2015-07-03T13:30:00Z,30.3288,-87.8293,2.141,8.32,1111122 
DISL,ioos:station:DISL:BSCA:1,2015-07-03T14:00:00Z,30.3288,-87.8293,2.175,8.35,1111122 
DISL,ioos:station:DISL:BSCA:1,2015-07-03T14:30:00Z,30.3288,-87.8293,2.202,8.42,1111122 
DISL,ioos:station:DISL:BSCA:1,2015-07-03T15:00:00Z,30.3288,-87.8293,2.227,8.43,1111122 
DISL,ioos:station:DISL:BSCA:1,2015-07-03T15:30:00Z,30.3288,-87.8293,2.249,8.4,1111122 
DISL,ioos:station:DISL:BSCA:1,2015-07-03T16:00:00Z,30.3288,-87.8293,2.257,8.38,1111122 
DISL,ioos:station:DISL:BSCA:1,2015-07-03T16:30:00Z,30.3288,-87.8293,2.27,8.36,1111122 
DISL,ioos:station:DISL:BSCA:1,2015-07-03T17:00:00Z,30.3288,-87.8293,2.266,8.35,1111122 
DISL,ioos:station:DISL:BSCA:1,2015-07-03T17:30:00Z,30.3288,-87.8293,2.264,8.39,1111122 
DISL,ioos:station:DISL:BSCA:1,2015-07-03T18:00:00Z,30.3288,-87.8293,2.257,8.37,1111122 
DISL,ioos:station:DISL:BSCA:1,2015-07-03T18:30:00Z,30.3288,-87.8293,2.235,8.39,1111122 
DISL,ioos:station:DISL:BSCA:1,2015-07-03T19:00:00Z,30.3288,-87.8293,2.229,8.36,1111122 
DISL,ioos:station:DISL:BSCA:1,2015-07-03T19:30:00Z,30.3288,-87.8293,2.19,8.34,1111122 
DISL,ioos:station:DISL:BSCA:1,2015-07-03T20:00:00Z,30.3288,-87.8293,2.162,8.35,1111122 
DISL,ioos:station:DISL:BSCA:1,2015-07-03T20:30:00Z,30.3288,-87.8293,2.121,8.34,1111122 
DISL,ioos:station:DISL:BSCA:1,2015-07-03T21:00:00Z,30.3288,-87.8293,2.096,8.28,1111122 
DISL,ioos:station:DISL:BSCA:1,2015-07-03T21:30:00Z,30.3288,-87.8293,2.045,8.26,1111122 
DISL,ioos:station:DISL:BSCA:1,2015-07-03T22:00:00Z,30.3288,-87.8293,2.006,8.16,1111122 
DISL,ioos:station:DISL:BSCA:1,2015-07-03T22:30:00Z,30.3288,-87.8293,1.952,8.11,1111122 
DISL,ioos:station:DISL:BSCA:1,2015-07-03T23:00:00Z,30.3288,-87.8293,1.92,8.11,1111122 
DISL,ioos:station:DISL:BSCA:1,2015-07-03T23:30:00Z,30.3288,-87.8293,1.897,8.11,1111122 
DISL,ioos:station:DISL:BSCA:1,2015-07-04T00:00:00Z,30.3288,-87.8293,1.866,8.13,1111122 
DISL,ioos:station:DISL:BSCA:1,2015-07-04T00:30:00Z,30.3288,-87.8293,1.841,8.16,1111122 
DISL,ioos:station:DISL:BSCA:1,2015-07-04T01:00:00Z,30.3288,-87.8293,1.814,8.14,1111122 
DISL,ioos:station:DISL:BSCA:1,2015-07-04T01:30:00Z,30.3288,-87.8293,1.776,8.14,1111122 
DISL,ioos:station:DISL:BSCA:1,2015-07-04T02:00:00Z,30.3288,-87.8293,1.764,8.14,1111122 
DISL,ioos:station:DISL:BSCA:1,2015-07-04T02:30:00Z,30.3288,-87.8293,1.735,8.14,1111122 
DISL,ioos:station:DISL:BSCA:1,2015-07-04T03:00:00Z,30.3288,-87.8293,1.731,8.16,1111122 
DISL,ioos:station:DISL:BSCA:1,2015-07-04T03:30:00Z,30.3288,-87.8293,1.715,8.1,1111122 
DISL,ioos:station:DISL:BSCA:1,2015-07-04T04:00:00Z,30.3288,-87.8293,1.715,8.17,1111122 
DISL,ioos:station:DISL:BSCA:1,2015-07-04T04:30:00Z,30.3288,-87.8293,1.719,8.23,1111122 
DISL,ioos:station:DISL:BSCA:1,2015-07-04T05:00:00Z,30.3288,-87.8293,1.731,8.26,1111122 
DISL,ioos:station:DISL:BSCA:1,2015-07-04T05:30:00Z,30.3288,-87.8293,1.747,8.27,1111122 
DISL,ioos:station:DISL:BSCA:1,2015-07-04T06:00:00Z,30.3288,-87.8293,1.767,8.34,1111122 
DISL,ioos:station:DISL:BSCA:1,2015-07-04T06:30:00Z,30.3288,-87.8293,1.795,8.34,1111122 
DISL,ioos:station:DISL:BSCA:1,2015-07-04T07:00:00Z,30.3288,-87.8293,1.806,8.37,1111122 
DISL,ioos:station:DISL:BSCA:1,2015-07-04T07:30:00Z,30.3288,-87.8293,1.817,8.42,1111122 
DISL,ioos:station:DISL:BSCA:1,2015-07-04T08:00:00Z,30.3288,-87.8293,1.847,8.38,1111122 
DISL,ioos:station:DISL:BSCA:1,2015-07-04T08:30:00Z,30.3288,-87.8293,1.875,8.37,1111122 
DISL,ioos:station:DISL:BSCA:1,2015-07-04T09:00:00Z,30.3288,-87.8293,1.911,8.49,1111122 
DISL,ioos:station:DISL:BSCA:1,2015-07-04T09:30:00Z,30.3288,-87.8293,1.941,8.51,1111122 
DISL,ioos:station:DISL:BSCA:1,2015-07-04T10:00:00Z,30.3288,-87.8293,1.957,8.51,1111122 
DISL,ioos:station:DISL:BSCA:1,2015-07-04T10:30:00Z,30.3288,-87.8293,1.98,8.54,1111122 
DISL,ioos:station:DISL:BSCA:1,2015-07-04T11:00:00Z,30.3288,-87.8293,2.002,8.55,1111122 
DISL,ioos:station:DISL:BSCA:1,2015-07-04T11:30:00Z,30.3288,-87.8293,2.024,8.5,1111122 
DISL,ioos:station:DISL:BSCA:1,2015-07-04T12:00:00Z,30.3288,-87.8293,2.027,8.58,1111122 
DISL,ioos:station:DISL:BSCA:1,2015-07-04T12:30:00Z,30.3288,-87.8293,2.059,8.64,1111122 
DISL,ioos:station:DISL:BSCA:1,2015-07-04T13:00:00Z,30.3288,-87.8293,2.093,8.56,1111122 
DISL,ioos:station:DISL:BSCA:1,2015-07-04T13:30:00Z,30.3288,-87.8293,2.101,8.71,1111122 
DISL,ioos:station:DISL:BSCA:1,2015-07-04T14:00:00Z,30.3288,-87.8293,2.122,8.69,1111122 
DISL,ioos:station:DISL:BSCA:1,2015-07-04T14:30:00Z,30.3288,-87.8293,2.151,8.65,1111122 
DISL,ioos:station:DISL:BSCA:1,2015-07-04T15:00:00Z,30.3288,-87.8293,2.169,8.65,1111122 
DISL,ioos:station:DISL:BSCA:1,2015-07-04T15:30:00Z,30.3288,-87.8293,2.194,8.68,1111122 
DISL,ioos:station:DISL:BSCA:1,2015-07-04T16:00:00Z,30.3288,-87.8293,2.21,8.66,1111122 
DISL,ioos:station:DISL:BSCA:1,2015-07-04T16:30:00Z,30.3288,-87.8293,2.227,8.68,1111122 
DISL,ioos:station:DISL:BSCA:1,2015-07-04T17:00:00Z,30.3288,-87.8293,2.223,8.69,1111122 
DISL,ioos:station:DISL:BSCA:1,2015-07-04T17:30:00Z,30.3288,-87.8293,2.227,8.71,1111122 
DISL,ioos:station:DISL:BSCA:1,2015-07-04T18:00:00Z,30.3288,-87.8293,2.225,8.68,1111122 
DISL,ioos:station:DISL:BSCA:1,2015-07-04T18:30:00Z,30.3288,-87.8293,2.218,8.88,1111122 
DISL,ioos:station:DISL:BSCA:1,2015-07-04T19:00:00Z,30.3288,-87.8293,2.207,8.91,1111122 
DISL,ioos:station:DISL:BSCA:1,2015-07-04T19:30:00Z,30.3288,-87.8293,2.184,8.89,1111122 
DISL,ioos:station:DISL:BSCA:1,2015-07-04T20:00:00Z,30.3288,-87.8293,2.16,8.89,1111122 
DISL,ioos:station:DISL:BSCA:1,2015-07-04T20:30:00Z,30.3288,-87.8293,2.135,8.91,1111122 
DISL,ioos:station:DISL:BSCA:1,2015-07-04T21:00:00Z,30.3288,-87.8293,2.111,8.85,1111122 
DISL,ioos:station:DISL:BSCA:1,2015-07-04T21:30:00Z,30.3288,-87.8293,2.091,8.86,1111122 
DISL,ioos:station:DISL:BSCA:1,2015-07-04T22:00:00Z,30.3288,-87.8293,2.048,8.84,1111122 
DISL,ioos:station:DISL:BSCA:1,2015-07-04T22:30:00Z,30.3288,-87.8293,2.028,8.84,1111122 
DISL,ioos:station:DISL:BSCA:1,2015-07-04T23:00:00Z,30.3288,-87.8293,1.993,8.84,1111122 
DISL,ioos:station:DISL:BSCA:1,2015-07-04T23:30:00Z,30.3288,-87.8293,1.956,8.84,1111122 
DISL,ioos:station:DISL:BSCA:1,2015-07-05T00:00:00Z,30.3288,-87.8293,1.935,8.87,1111122 
DISL,ioos:station:DISL:BSCA:1,2015-07-05T00:30:00Z,30.3288,-87.8293,1.861,8.71,1111122 
DISL,ioos:station:DISL:BSCA:1,2015-07-05T01:00:00Z,30.3288,-87.8293,1.995,8.72,1111122 
DISL,ioos:station:DISL:BSCA:1,2015-07-05T01:30:00Z,30.3288,-87.8293,1.87,8.86,1111122 
DISL,ioos:station:DISL:BSCA:1,2015-07-05T02:00:00Z,30.3288,-87.8293,1.754,8.79,1111122 
DISL,ioos:station:DISL:BSCA:1,2015-07-05T02:30:00Z,30.3288,-87.8293,1.723,8.59,1111122 
DISL,ioos:station:DISL:BSCA:1,2015-07-05T03:00:00Z,30.3288,-87.8293,1.646,8.46,1111122 
DISL,ioos:station:DISL:BSCA:1,2015-07-05T03:30:00Z,30.3288,-87.8293,1.651,8.46,1111122 
DISL,ioos:station:DISL:BSCA:1,2015-07-05T04:00:00Z,30.3288,-87.8293,1.648,8.54,1111122 
DISL,ioos:station:DISL:BSCA:1,2015-07-05T04:30:00Z,30.3288,-87.8293,1.645,8.56,1111122 
DISL,ioos:station:DISL:BSCA:1,2015-07-05T05:00:00Z,30.3288,-87.8293,1.661,8.54,1111122 
DISL,ioos:station:DISL:BSCA:1,2015-07-05T05:30:00Z,30.3288,-87.8293,1.69,8.51,1111122 
DISL,ioos:station:DISL:BSCA:1,2015-07-05T06:00:00Z,30.3288,-87.8293,1.697,8.55,1111122 
DISL,ioos:station:DISL:BSCA:1,2015-07-05T06:30:00Z,30.3288,-87.8293,1.739,8.57,1111122 
DISL,ioos:station:DISL:BSCA:1,2015-07-05T07:00:00Z,30.3288,-87.8293,1.744,8.56,1111122 
DISL,ioos:station:DISL:BSCA:1,2015-07-05T07:30:00Z,30.3288,-87.8293,1.764,8.55,1111122 
DISL,ioos:station:DISL:BSCA:1,2015-07-05T08:00:00Z,30.3288,-87.8293,1.781,8.55,1111122 
DISL,ioos:station:DISL:BSCA:1,2015-07-05T08:30:00Z,30.3288,-87.8293,1.799,8.57,1111122 
DISL,ioos:station:DISL:BSCA:1,2015-07-05T09:00:00Z,30.3288,-87.8293,1.828,8.58,1111122 
DISL,ioos:station:DISL:BSCA:1,2015-07-05T09:30:00Z,30.3288,-87.8293,1.863,8.57,1111122 
DISL,ioos:station:DISL:BSCA:1,2015-07-05T10:00:00Z,30.3288,-87.8293,1.893,8.59,1111122 
DISL,ioos:station:DISL:BSCA:1,2015-07-05T10:30:00Z,30.3288,-87.8293,1.911,8.58,1111122 
DISL,ioos:station:DISL:BSCA:1,2015-07-05T11:00:00Z,30.3288,-87.8293,1.932,8.54,1111122 
DISL,ioos:station:DISL:BSCA:1,2015-07-05T11:30:00Z,30.3288,-87.8293,1.932,8.37,1111122 
DISL,ioos:station:DISL:BSCA:1,2015-07-05T12:00:00Z,30.3288,-87.8293,1.97,8.4,1111122 
DISL,ioos:station:DISL:BSCA:1,2015-07-05T12:30:00Z,30.3288,-87.8293,2.025,8.37,1111122 
DISL,ioos:station:DISL:BSCA:1,2015-07-05T13:00:00Z,30.3288,-87.8293,1.939,8.41,1111122 
DISL,ioos:station:DISL:BSCA:1,2015-07-05T13:30:00Z,30.3288,-87.8293,2.052,8.39,1111122 
DISL,ioos:station:DISL:BSCA:1,2015-07-05T14:00:00Z,30.3288,-87.8293,2.034,8.35,1111122 
DISL,ioos:station:DISL:BSCA:1,2015-07-05T14:30:00Z,30.3288,-87.8293,2.059,8.38,1111122 
DISL,ioos:station:DISL:BSCA:1,2015-07-05T15:00:00Z,30.3288,-87.8293,2.085,8.4,1111122 
DISL,ioos:station:DISL:BSCA:1,2015-07-05T15:30:00Z,30.3288,-87.8293,2.121,8.39,1111122 
DISL,ioos:station:DISL:BSCA:1,2015-07-05T16:00:00Z,30.3288,-87.8293,2.116,8.4,1111122 
DISL,ioos:station:DISL:BSCA:1,2015-07-05T16:30:00Z,30.3288,-87.8293,2.149,8.39,1111122 
DISL,ioos:station:DISL:BSCA:1,2015-07-05T17:00:00Z,30.3288,-87.8293,2.173,8.42,1111122 
DISL,ioos:station:DISL:BSCA:1,2015-07-05T17:30:00Z,30.3288,-87.8293,2.19,8.42,1111122 
DISL,ioos:station:DISL:BSCA:1,2015-07-05T18:00:00Z,30.3288,-87.8293,2.208,8.39,1111122 
DISL,ioos:station:DISL:BSCA:1,2015-07-05T18:30:00Z,30.3288,-87.8293,2.213,8.4,1111122 
DISL,ioos:station:DISL:BSCA:1,2015-07-05T19:00:00Z,30.3288,-87.8293,2.202,8.4,1111122 
DISL,ioos:station:DISL:BSCA:1,2015-07-05T19:30:00Z,30.3288,-87.8293,2.131,8.37,1111122 
DISL,ioos:station:DISL:BSCA:1,2015-07-05T20:00:00Z,30.3288,-87.8293,2.062,8.39,1111122 
DISL,ioos:station:DISL:BSCA:1,2015-07-05T20:30:00Z,30.3288,-87.8293,2.085,8.38,1111122 
DISL,ioos:station:DISL:BSCA:1,2015-07-05T21:00:00Z,30.3288,-87.8293,2.043,8.42,1111122 
DISL,ioos:station:DISL:BSCA:1,2015-07-05T21:30:00Z,30.3288,-87.8293,2.102,8.44,1111122 
DISL,ioos:station:DISL:BSCA:1,2015-07-05T22:00:00Z,30.3288,-87.8293,2.082,8.49,1111122 
DISL,ioos:station:DISL:BSCA:1,2015-07-05T22:30:00Z,30.3288,-87.8293,2.076,8.43,1111122 
DISL,ioos:station:DISL:BSCA:1,2015-07-05T23:00:00Z,30.3288,-87.8293,2.007,8.43,1111122 
DISL,ioos:station:DISL:BSCA:1,2015-07-05T23:30:00Z,30.3288,-87.8293,2.002,8.39,1111122 
DISL,ioos:station:DISL:BSCA:1,2015-07-06T00:00:00Z,30.3288,-87.8293,1.869,8.36,1111122 
DISL,ioos:station:DISL:BSCA:1,2015-07-06T00:30:00Z,30.3288,-87.8293,1.806,8.34,1111122 
DISL,ioos:station:DISL:BSCA:1,2015-07-06T01:00:00Z,30.3288,-87.8293,1.751,8.35,1111122 
DISL,ioos:station:DISL:BSCA:1,2015-07-06T01:30:00Z,30.3288,-87.8293,1.757,8.34,1111122 
DISL,ioos:station:DISL:BSCA:1,2015-07-06T02:00:00Z,30.3288,-87.8293,1.831,8.36,1111122 
DISL,ioos:station:DISL:BSCA:1,2015-07-06T02:30:00Z,30.3288,-87.8293,1.922,8.39,1111122 
DISL,ioos:station:DISL:BSCA:1,2015-07-06T03:00:00Z,30.3288,-87.8293,1.887,8.38,1111122 
DISL,ioos:station:DISL:BSCA:1,2015-07-06T03:30:00Z,30.3288,-87.8293,1.828,8.37,1111122 
DISL,ioos:station:DISL:BSCA:1,2015-07-06T04:00:00Z,30.3288,-87.8293,1.765,8.33,1111122 
DISL,ioos:station:DISL:BSCA:1,2015-07-06T04:30:00Z,30.3288,-87.8293,1.725,8.31,1111122 
DISL,ioos:station:DISL:BSCA:1,2015-07-06T05:00:00Z,30.3288,-87.8293,1.692,8.3,1111122 
DISL,ioos:station:DISL:BSCA:1,2015-07-06T05:30:00Z,30.3288,-87.8293,1.626,8.28,1111122 
DISL,ioos:station:DISL:BSCA:1,2015-07-06T06:00:00Z,30.3288,-87.8293,1.664,8.27,1111122 
DISL,ioos:station:DISL:BSCA:1,2015-07-06T06:30:00Z,30.3288,-87.8293,1.686,8.28,1111122 
DISL,ioos:station:DISL:BSCA:1,2015-07-06T07:00:00Z,30.3288,-87.8293,1.732,8.31,1111122 
DISL,ioos:station:DISL:BSCA:1,2015-07-06T07:30:00Z,30.3288,-87.8293,1.758,8.33,1111122 
DISL,ioos:station:DISL:BSCA:1,2015-07-06T08:00:00Z,30.3288,-87.8293,1.81,8.35,1111122 
DISL,ioos:station:DISL:BSCA:1,2015-07-06T08:30:00Z,30.3288,-87.8293,1.835,8.34,1111122 
DISL,ioos:station:DISL:BSCA:1,2015-07-06T09:00:00Z,30.3288,-87.8293,1.831,8.37,1111122 
DISL,ioos:station:DISL:BSCA:1,2015-07-06T09:30:00Z,30.3288,-87.8293,1.832,8.36,1111122 
DISL,ioos:station:DISL:BSCA:1,2015-07-06T10:00:00Z,30.3288,-87.8293,1.827,8.34,1111122 
DISL,ioos:station:DISL:BSCA:1,2015-07-06T10:30:00Z,30.3288,-87.8293,1.853,8.35,1111122 
DISL,ioos:station:DISL:BSCA:1,2015-07-06T11:00:00Z,30.3288,-87.8293,1.878,8.36,1111122 
DISL,ioos:station:DISL:BSCA:1,2015-07-06T11:30:00Z,30.3288,-87.8293,1.912,8.37,1111122 
DISL,ioos:station:DISL:BSCA:1,2015-07-06T12:00:00Z,30.3288,-87.8293,1.907,8.38,1111122 
DISL,ioos:station:DISL:BSCA:1,2015-07-06T12:30:00Z,30.3288,-87.8293,1.919,8.37,1111122 
DISL,ioos:station:DISL:BSCA:1,2015-07-06T13:00:00Z,30.3288,-87.8293,1.906,8.37,1111122 
DISL,ioos:station:DISL:BSCA:1,2015-07-06T13:30:00Z,30.3288,-87.8293,1.917,8.37,1111122 
DISL,ioos:station:DISL:BSCA:1,2015-07-06T14:00:00Z,30.3288,-87.8293,1.928,8.36,1111122 
DISL,ioos:station:DISL:BSCA:1,2015-07-06T14:30:00Z,30.3288,-87.8293,1.935,8.4,1111122 
DISL,ioos:station:DISL:BSCA:1,2015-07-06T15:00:00Z,30.3288,-87.8293,1.951,8.4,1111122 
DISL,ioos:station:DISL:BSCA:1,2015-07-06T15:30:00Z,30.3288,-87.8293,1.963,8.41,1111122 